Content
SEND FEEDBACK

Daily
Averages
Monthly
Summary
United States of America

RAPID CITY, SOUTH DAKOTA


Home > North America > United States > South Dakota
Elevation: 3162 feet     Latitude: 44 03N     Longitude: 103 04W

WEATHER
 
SELECT A DAY
Number of Records: 200,229;   Date Range: 1/1/95 - 7/22/14
 
SHARE

PRINT THIS DATA

[ ← Previous Day ]
WEATHER ALMANAC - APRIL 23, 2013
[ Next Day → ]
[ °C ]   °F
Weather ElementAverageHighLow
Temperature26.5 °F36 °F (4:52 pm)14 °F (2:52 am)
Dewpoint15.4 °F21 °F (6:52 pm)7 °F (5:52 am)
Humidity64.1 %80 % (1:52 am)46 % (12:52 pm)
Barometer30.33 in30.48 in (1:52 am)30.17 in (11:52 pm)
Wind Speed5.1 mph9.2 mph (1:52 am)
Weather ElementAverage
Visibility10 mi
Wind DirectionSSW (194.8 °)

Weather ElementTotal
Precipitation---
Heating Degree Days40 (Base 65)
Averaged from 23 records on April 23, 2013
WEATHER CONDITIONS BREAKOUT
WIND DIRECTION BREAKOUT
WEATHER BY HOUR - APRIL 23, 2013
[ °C ]   °F
Local TimeTemperatureDewpointHumidityBarometerVisibilityWind DirectionWind SpeedGust SpeedPrecipitationEventsConditions
1:52 AM15.1 °F10.0 °F80 %30.48 in10.0 miNNW (340°)9.2 mphClear
2:52 AM14.0 °F9.0 °F80 %30.47 in10.0 miNW (320°)8.1 mphScattered Clouds
3:52 AM14.0 °F8.1 °F77 %30.45 in10.0 miWNW (300°)6.9 mphClear
4:52 AM15.1 °F9.0 °F77 %30.43 in10.0 miWest (280°)6.9 mphClear
5:52 AM14.0 °F7.0 °F74 %30.42 in10.0 miWNW (300°)6.9 mphClear
6:52 AM17.1 °F9.0 °F71 %30.42 in10.0 miWNW (290°)9.2 mphClear
7:52 AM19.0 °F10.0 °F68 %30.43 in10.0 miWNW (300°)5.8 mphClear
8:52 AM25.0 °F14.0 °F63 %30.40 in10.0 miWest (280°)4.6 mphClear
9:52 AM28.0 °F17.1 °F63 %30.38 in10.0 miCalmClear
10:52 AM30.9 °F17.1 °F57 %30.36 in10.0 miCalmClear
11:52 AM33.1 °F15.1 °F48 %30.34 in10.0 miCalmClear
12:52 PM33.1 °F14.0 °F46 %30.32 in10.0 miEast (80°)4.6 mphClear
1:52 PM33.1 °F16.0 °F50 %30.31 in10.0 miSSE (160°)6.9 mphClear
2:52 PM33.1 °F17.1 °F52 %30.29 in10.0 miSSW (200°)5.8 mphClear
3:52 PM34.0 °F19.0 °F54 %30.27 in10.0 miSSW (200°)6.9 mphClear
4:52 PM36.0 °F19.0 °F50 %30.25 in10.0 miCalmClear
5:52 PM35.1 °F19.0 °F52 %30.25 in10.0 miSouth (180°)3.5 mphClear
6:52 PM35.1 °F21.0 °F57 %30.23 in10.0 miSSE (160°)3.5 mphClear
7:52 PM30.9 °F21.0 °F67 %30.24 in10.0 miSouth (180°)5.8 mphClear
8:52 PM30.0 °F21.0 °F69 %30.23 in10.0 miSW (230°)4.6 mphClear
9:52 PM28.0 °F21.0 °F75 %30.22 in10.0 miSW (230°)6.9 mphClear
10:52 PM28.9 °F19.9 °F69 %30.19 in10.0 miSW (220°)5.8 mphClear
11:52 PM27.0 °F19.9 °F75 %30.17 in10.0 miSW (230°)4.6 mphClear
Hourly data recorded from KRAP, located miles away from Rapid City, South Dakota







STORIES FROM OUR PARTNERS